This is the latest recevied weather packets stored in our database for station/object KB9YVI-11. If no packets are shown the sender has not sent any weather packets the latest 10 day(s).
| Time | Temp. | Humidity | Pressure | Rain* | Wind** | Luminosity | Snow |
|---|---|---|---|---|---|---|---|
| 1777568749 | 14.44° C | 77% | 0 hPa | 0 mm | - | - | - |
| 1777567849 | 14.44° C | 77% | 0 hPa | 0 mm | - | - | - |
| 1777566949 | 13.89° C | 70% | 0 hPa | 0 mm | - | - | - |
| 1777566648 | 13.89° C | 75% | 0 hPa | 0 mm | - | - | - |
| 1777564549 | 12.78° C | 83% | 0 hPa | 0 mm | - | - | - |
| 1777564250 | 12.78° C | 79% | 0 hPa | 0 mm | - | - | - |
| 1777563949 | 12.78° C | 79% | 0 hPa | 0 mm | - | - | - |
| 1777563649 | 12.78° C | 84% | 0 hPa | 0 mm | - | - | - |
| 1777563349 | 12.78° C | 85% | 0 hPa | 0 mm | - | - | - |
| 1777563048 | 12.78° C | 83% | 0 hPa | 0 mm | - | - | - |
| 1777562749 | 12.22° C | 82% | 0 hPa | 0 mm | - | - | - |
| 1777562149 | 12.22° C | 87% | 0 hPa | 0 mm | - | - | - |
| 1777561849 | 12.22° C | 86% | 0 hPa | 0 mm | - | - | - |
| 1777561549 | 12.22° C | 88% | 0 hPa | 0 mm | - | - | - |
| 1777560949 | 11.67° C | 91% | 0 hPa | 0 mm | - | - | - |
| 1777560649 | 11.67° C | 93% | 0 hPa | 0 mm | - | - | - |
| 1777560349 | 11.11° C | 92% | 0 hPa | 0 mm | - | - | - |
| 1777560049 | 11.11° C | 93% | 0 hPa | 0 mm | - | - | - |
| 1777559749 | 11.11° C | 96% | 0 hPa | 0 mm | - | - | - |
| 1777559448 | 10.56° C | 96% | 0 hPa | 0 mm | - | - | - |
| 1777559149 | 10.56° C | 97% | 0 hPa | 0 mm | - | - | - |
| 1777558249 | 10° C | 98% | 0 hPa | 0 mm | - | - | - |
| 1777557951 | 10° C | 99% | 0 hPa | 0 mm | - | - | - |
| 1777557050 | 9.44° C | 100% | 0 hPa | 0 mm | - | - | - |
| 1777556149 | 8.89° C | 100% | 0 hPa | 0 mm | - | - | - |
* Rain latest hour (hover to see other rain measurements)
** Current wind speed in m/s (hover to see current wind gust speed)